Satellite: FO-69
Catalog number: 37227
Epoch time:      12011.43277023
Element set:    0074
Inclination:      071.9718 deg
RA of node:       300.0155 deg
Eccentricity:    0.0018854
Arg of perigee:   254.6661 deg
Mean anomaly:     105.2417 deg
Mean motion:   14.76890019 rev/day
Decay rate:       5.46e-06 rev/day^2
Epoch rev:           01280
Checksum:              284

Satellite: FO-70
Catalog number: 37380
Epoch time:      12011.34442304
Element set:    0077
Inclination:      071.9757 deg
RA of node:       300.5718 deg
Eccentricity:    0.0019422
Arg of perigee:   251.9794 deg
Mean anomaly:     107.9251 deg
Mean motion:   14.76648516 rev/day
Decay rate:       5.54e-06 rev/day^2
Epoch rev:           01268
Checksum:              300

/EX
SB KEPS @ AMSAT  $ORB12012.W
Orbital Elements  12012.WEATHER

HR AMSAT ORBITAL ELEMENTS FOR WEATHER SATELLITES
FROM WA5QGD FORT WORTH,TX January 12, 2012
Send SUBSCRIBE KEPS/UNSUBSCRIBE KEPS to majordomo at amsat.org only
BID: ORB12012.W
TO ALL RADIO AMATEURS BT

Satellite: NOAA-10
Catalog number: 16969
Epoch time:      12012.64800777
Element set:     777
Inclination:      098.6000 deg
RA of node:       044.3587 deg
Eccentricity:    0.0011829
Arg of perigee:   336.8665 deg
Mean anomaly:     023.1977 deg
Mean motion:   14.27519951 rev/day
Decay rate:        1.8e-07 rev/day^2
Epoch rev:           31753
Checksum:              322

Satellite: NOAA-11
Catalog number: 19531
Epoch time:      12012.30325286
Element set:     778
Inclination:      098.7423 deg
RA of node:       100.7191 deg
Eccentricity:    0.0010792
Arg of perigee:   315.4378 deg
Mean anomaly:     044.5935 deg
Mean motion:   14.14948802 rev/day
Decay rate:        5.2e-07 rev/day^2
Epoch rev:           20232
Checksum:              278

Satellite: NOAA-12
Catalog number: 21263
Epoch time:      12012.66126041
Element set:     266
Inclination:      098.7395 deg
RA of node:       034.9744 deg
Eccentricity:    0.0012985
Arg of perigee:   298.0035 deg
Mean anomaly:     061.9830 deg
Mean motion:   14.25471689 rev/day
Decay rate:        8.8e-07 rev/day^2
Epoch rev:            7425
Checksum:              306

Satellite: MET-3/5
Catalog number: 21655
Epoch time:      12011.89504466
Element set:    0310
Inclination:      082.5580 deg
RA of node:       263.3082 deg
Eccentricity:    0.0013731
Arg of perigee:   000.7479 deg
Mean anomaly:     359.3712 deg
Mean motion:   13.17035125 rev/day
Decay rate:        5.1e-07 rev/day^2
Epoch rev:           98119
Checksum:              275

Satellite: MET-2/21
Catalog number: 22782
Epoch time:      12012.52892510
Element set:     308
Inclination:      082.5484 deg
RA of node:       156.7994 deg
Eccentricity:    0.0021387
Arg of perigee:   229.8176 deg
Mean anomaly:     130.1106 deg
Mean motion:   13.83673741 rev/day
Decay rate:        8.7e-07 rev/day^2
Epoch rev:           92750
Checksum:              307

Satellite: OKEAN-4
Catalog number: 23317
Epoch time:      12011.95817534
Element set:    0800
Inclination:      082.5389 deg
RA of node:       178.1448 deg
Eccentricity:    0.0022306
Arg of perigee:   146.9491 deg
Mean anomaly:     213.3124 deg
Mean motion:   14.83520145 rev/day
Decay rate:      1.129e-05 rev/day^2
Epoch rev:           93149
Checksum:              287

Satellite: NOAA-14
Catalog number: 23455
Epoch time:      12012.65297605
Element set:     749
Inclination:      098.8375 deg
RA of node:       098.0696 deg
Eccentricity:    0.0010110
Arg of perigee:   047.5571 deg
Mean anomaly:     312.6457 deg
Mean motion:   14.13869828 rev/day
Decay rate:        4.4e-07 rev/day^2
Epoch rev:           87867
Checksum:              333

Satellite: NOAA-15
Catalog number: 25338
Epoch time:      12012.62253023
Element set:      98
Inclination:      098.6762 deg
RA of node:       001.1301 deg
Eccentricity:    0.0010280
Arg of perigee:   199.6031 deg
Mean anomaly:     160.4739 deg
Mean motion:   14.25018809 rev/day
Decay rate:       2.33e-06 rev/day^2
Epoch rev:           71055
Checksum:              261

Satellite: RESURS
Catalog number: 25394
Epoch time:      12011.96890869
Element set:    0991
Inclination:      098.3080 deg
RA of node:       008.5824 deg
Eccentricity:    0.0001737
Arg of perigee:   014.1804 deg
Mean anomaly:     345.9425 deg
Mean motion:   14.24268785 rev/day
Decay rate:        5.6e-07 rev/day^2
Epoch rev:           70202
Checksum:              304

Satellite: FENGYUN1
Catalog number: 25730
Epoch time:      12011.89297732
Element set:     512
Inclination:      098.8335 deg
RA of node:       333.7460 deg
Eccentricity:    0.0021470
Arg of perigee:   090.9708 deg
Mean anomaly:     269.3918 deg
Mean motion:   14.09151027 rev/day
Decay rate:       7.17e-06 rev/day^2
Epoch rev:           65245
Checksum:              301

Satellite: OKEAN-0
Catalog number: 25860
Epoch time:      12011.92047268
Element set:    0533
Inclination:      097.9129 deg
RA of node:       337.9981 deg
Eccentricity:    0.0001758
Arg of perigee:   054.6544 deg
Mean anomaly:     305.4829 deg
Mean motion:   14.74050558 rev/day
Decay rate:       5.36e-06 rev/day^2
Epoch rev:           67140
Checksum:              313

Satellite: NOAA-16
Catalog number: 26536
Epoch time:      12012.65663094
Element set:     582
Inclination:      099.1167 deg
RA of node:       052.2062 deg
Eccentricity:    0.0011012
Arg of perigee:   161.0847 deg
Mean anomaly:     199.0744 deg
Mean motion:   14.12696856 rev/day
Decay rate:       4.36e-06 rev/day^2
Epoch rev:           58293
Checksum:              303

Satellite: NOAA-17
Catalog number: 27453
Epoch time:      12012.51767193
Element set:     560
Inclination:      098.3547 deg
RA of node:       047.3414 deg
Eccentricity:    0.0010788
Arg of perigee:   255.0015 deg
Mean anomaly:     104.9977 deg
Mean motion:   14.24381492 rev/day
Decay rate:        6.7e-07 rev/day^2
Epoch rev:           49645
Checksum:              313

Satellite: NOAA-18
Catalog number: 28654
Epoch time:      12012.49278144
Element set:      36
Inclination:      099.0262 deg
RA of node:       329.4559 deg
Eccentricity:    0.0013736
Arg of perigee:   234.5303 deg
Mean anomaly:     125.4563 deg
Mean motion:   14.11590997 rev/day
Decay rate:       3.74e-06 rev/day^2
Epoch rev:           34245
Checksum:              307

Satellite: NOAA-19
Catalog number: 33591
Epoch time:      12012.53653666
Element set:     225
Inclination:      098.8506 deg
RA of node:       314.3937 deg
Eccentricity:    0.0014875
Arg of perigee:   103.3054 deg
Mean anomaly:     256.9758 deg
Mean motion:   14.11278664 rev/day
Decay rate:       3.64e-06 rev/day^2
Epoch rev:           15091
Checksum:              314

/EX
SB KEPS @ AMSAT  $ORB12012.M
Orbital Elements  12012.MISC

HR AMSAT ORBITAL ELEMENTS FOR MANNED AND MISCELLANEOUS SATELLITES
FROM WA5QGD FORT WORTH,TX January 12, 2012
Send SUBSCRIBE KEPS/UNSUBSCRIBE KEPS to majordomo at amsat.org only
BID: ORB12012.M
TO ALL RADIO AMATEURS BT

Satellite: HUBBLE
Catalog number: 20580
Epoch time:      12010.70633230
Element set:     922
Inclination:      028.4699 deg
RA of node:       100.3063 deg
Eccentricity:    0.0003433
Arg of perigee:   159.0818 deg
Mean anomaly:     333.3663 deg
Mean motion:   15.02064828 rev/day
Decay rate:       1.70e-06 rev/day^2
Epoch rev:           99087
Checksum:              265

Satellite: ISS
Catalog number: 25544
Epoch time:      12012.91086523
Element set:     807
Inclination:      051.6417 deg
RA of node:       186.0353 deg
Eccentricity:    0.0023538
Arg of perigee:   274.8814 deg
Mean anomaly:     249.9623 deg
Mean motion:   15.59140841 rev/day
Decay rate:     1.3395e-04 rev/day^2
Epoch rev:           75364
Checksum:              306

Satellite: CO-58
Catalog number: 28895
Epoch time:      12011.58143083
Element set:    0071
Inclination:      097.9376 deg
RA of node:       244.5815 deg
Eccentricity:    0.0016774
Arg of perigee:   287.5849 deg
Mean anomaly:     072.3516 deg
Mean motion:   14.60439356 rev/day
Decay rate:       7.04e-06 rev/day^2
Epoch rev:           33065
Checksum:              331

Satellite: FALCON
Catalog number: 30776
Epoch time:      12012.83372754
Element set:     258
Inclination:      035.4316 deg
RA of node:       150.9701 deg
Eccentricity:    0.0001910
Arg of perigee:   068.4874 deg
Mean anomaly:     291.6046 deg
Mean motion:   15.06378620 rev/day
Decay rate:      3.545e-05 rev/day^2
Epoch rev:           26665
Checksum:              292

Satellite: MAST
Catalog number: 31126
Epoch time:      12011.98533321
Element set:    0368
Inclination:      097.8805 deg
RA of node:       032.2526 deg
Eccentricity:    0.0093078
Arg of perigee:   240.4625 deg
Mean anomaly:     118.7271 deg
Mean motion:   14.54004296 rev/day
Decay rate:       6.36e-06 rev/day^2
Epoch rev:           25142
Checksum:              276

Satellite: CAPE1
Catalog number: 31130
Epoch time:      12011.61097409
Element set:     367
Inclination:      097.8861 deg
RA of node:       028.3998 deg
Eccentricity:    0.0100883
Arg of perigee:   253.6924 deg
Mean anomaly:     105.3123 deg
Mean motion:   14.52729073 rev/day
Decay rate:       7.22e-06 rev/day^2
Epoch rev:           25089
Checksum:              294

Satellite: COMPASS
Catalog number: 32787
Epoch time:      12011.79716713
Element set:    0195
Inclination:      097.8234 deg
RA of node:       076.5247 deg
Eccentricity:    0.0014775
Arg of perigee:   212.2472 deg
Mean anomaly:     147.7825 deg
Mean motion:   14.83384832 rev/day
Decay rate:      1.917e-05 rev/day^2
Epoch rev:           20047
Checksum:              313

